DELTA 1 DEB, 7034

Orbit data source: Space-Track

DELTA 1 DEB, 7034 is space debris in SSO originally from a launch on Tue, 06 Nov 1973 UTC launched from the Air Force Western Test Range (AFWTR). Debris objects in space refer to the collection of defunct objects orbiting the Earth. Examples of debris include non-operational satellites, rocket bodies, and fragments generated from explosions, collisions, or faulty payload assembly.

Loading next visibility...
Identifier
7034, 1973-086AA
Orbit
SSO
Last TLE update
13 hours ago
Origin
Manufacturer
Unknown
Mission
Spacecraft
Bus & Motor
Unknown
Mass
Unknown
Launch date (UTC)
1973-11-06 (52 years ago)
Launch vehicle
Unknown
Launch site
Air Force Western Test Range (AFWTR)
Object type
Payload
Rocket body
Debris
Shape & HBR
Unknown
Radar Cross Section
Small (<0.1 m²)

Expand to show TLE details & history

TLE from 13 hours ago
0 DELTA 1 DEB
1 07034U 73086AA  25181.85350553 -.00000021  00000-0  17530-3 0  9992
2 07034 102.0763 158.1479 0015914 307.5466 123.4365 12.43813422342240
Epoch: 2025-06-30T20:29Z
TLE epoch observation values (Epoch: 2025-06-30T20:29:02.877Z)
Latitude
67.79953°
Longitude
-99.71726°
Altitude
1,508.946 km
Speed
7.113 km/s
True Right ascension
08h 26m 48s
True Declination
67° 41' 26"
Sunlit
Object was in daylight at epoch
Visualization orbit readout
Latitude
-31.33025°
Longitude
-60.28581°
Altitude
1,490.258 km
Speed
7.123 km/s
Apparent Right ascension
10h 14m 21s
Apparent Declination
-35° 55' 08"
Sunlit
Object is in daylight
Visualization observer readout
Local Sidereal Time
21:04:57
Azimuth
280.801° WNW
Elevation
-75.768°
Doppler factor
1
Orbital elements
Apogee altitude
1,500.572 km
Perigee altitude
1,475.535 km
Semi-major axis
7,866.19 km
Eccentricity
0.00159
Inclination
102.0763°
RAAN
158.1479°
Arg. of periapsis
307.5466°
True anomaly
Unknown
Mean anomaly
123.4365°
Eccentric anomaly
Unknown
Mean motion
3.11097 °/min
Orbital period
115.72 mins
BSTAR
0.0001753
Loading maneuver chart data...
Loading SW <> Apogee altitude chart data...
Loading historical data...
Loading historical data...
Loading historical data...
Loading historical data...
Loading historical data...
Loading historical data...
Loading historical data...

DELTA 1 DEB Visibility forecast

Observer location: undefined°, undefined°

Span
Click to sort rows by Start time (UTC) header in descending order
Start Az.
Max El. time (UTC)
Max El. Az.
Max El.
End time (UTC)
End Az.
14 mins2025-07-01 10:15:40.773Z37.46° NE2025-07-01 10:22:40.773Z96.418° ESE28.753°2025-07-01 10:29:40.773Z156.889° SSE
15 mins2025-07-01 12:09:40.773Z7.167° NNE2025-07-01 12:16:40.773Z293.334° NW39.678°2025-07-01 12:24:40.773Z220.984° SW
4 mins2025-07-01 14:06:40.773Z328.305° NNW2025-07-01 14:08:40.773Z313.566° NW12.515°2025-07-01 14:10:40.773Z299.145° NW
14 mins2025-07-01 21:19:40.773Z129.823° SE2025-07-01 21:26:40.773Z53.347° ENE36.884°2025-07-01 21:33:40.773Z353.555° N
13 mins2025-07-01 23:13:40.773Z200.821° SSW2025-07-01 23:19:40.773Z258.087° W31.828°2025-07-01 23:26:40.773Z323.606° NNW
|